Location: Fort Worth, Tx
(32.7431°N, 97.3695°W)
Time: 09:15:49
(UTC-04:00)

A-11 Canister half - Pass Details

Date: 18 August 2024
Orbit: 1524 x 1684 km, 47.3° (Epoch: 13 September)

Event Time Altitude Azimuth Distance (km) Brightness Sun altitude
Rises 22:32:26 0° 225° (SW) 4,817 11.8 -16.9°
Reaches altitude 10° 22:35:31 10° 224° (SW) 3,853 11.3 -17.4°
Maximum altitude 22:45:24 79° 139° (SE) 1,689 9.0 -19.2°
Drops below altitude 10° 22:55:34 10° 54° (NE) 3,948 10.9 -21.1°
Sets 22:58:45 0° 54° (NE) 4,940 11.5 -21.6°
